Location: Cahas Mountain Overlook
(37.0833°N, 80.1000°W)
Time: 20:38:47
(UTC-05:00)

Courier 1B Rocket - Pass Details

Date: 07 December 2023
Orbit: 920 x 1202 km, 28.2° (Epoch: 29 February)

Event Time Altitude Azimuth Distance (km) Brightness Sun altitude
Rises 12:29:48 0° 247° (WSW) 3,782 8.4 30.1°
Reaches altitude 10° 12:32:46 10° 239° (WSW) 2,784 8.0 30.1°
Maximum altitude 12:38:50 37° 175° (S) 1,462 8.2 29.9°
Drops below altitude 10° 12:44:35 10° 110° (ESE) 2,640 7.5 29.8°
Sets 12:47:20 0° 102° (ESE) 3,564 8.0 29.7°
